Photometre #848[NE_1.6_Dp] Watnall_MO AOT

File : 20220921_848.hum

21/09/2022,06:48:01,TEMP=12.1,BA=5.68,STAT.A,ExtBa=12.30
21/09/2022,06:52:19,TEMP=12.3,BA=5.60,STAT.A,ExtBa=12.30
21/09/2022,06:57:21,TEMP=12.4,BA=5.60,STAT.A,ExtBa=12.30
21/09/2022,07:03:20,TEMP=12.5,BA=5.68,STAT.A,ExtBa=12.30
21/09/2022,07:10:35,TEMP=12.4,BA=5.68,STAT.A,ExtBa=12.30
21/09/2022,07:19:32,TEMP=12.6,BA=5.68,STAT.A,ExtBa=12.30
21/09/2022,07:24:23,TEMP=12.9,BA=5.52,STAT.D,ExtBa=12.30
21/09/2022,07:27:23,TEMP=13.3,BA=5.52,STAT.D,ExtBa=12.20
21/09/2022,07:30:23,TEMP=13.7,BA=5.68,STAT.D,ExtBa=12.20
21/09/2022,07:32:22,TEMP=14.2,BA=5.68,STAT.B,ExtBa=12.20
21/09/2022,07:41:20,TEMP=14.9,BA=5.52,STAT.A,ExtBa=12.10
21/09/2022,07:44:00,TEMP=14.9,BA=5.52,STAT.A,ExtBa=12.20
21/09/2022,07:49:31,TEMP=14.7,BA=5.52,STAT.A,ExtBa=12.20
21/09/2022,07:57:31,TEMP=14.7,BA=5.52,STAT.A,ExtBa=12.20
21/09/2022,08:06:44,TEMP=14.8,BA=5.64,STAT.C,ExtBa=12.20
21/09/2022,08:17:36,TEMP=14.9,BA=5.68,STAT.A,ExtBa=12.30
21/09/2022,08:30:23,TEMP=14.9,BA=5.68,STAT.D,ExtBa=12.30
21/09/2022,08:32:22,TEMP=15.3,BA=5.68,STAT.A,ExtBa=12.20
21/09/2022,08:45:25,TEMP=15.3,BA=5.68,STAT.D,ExtBa=12.30
21/09/2022,08:47:23,TEMP=15.8,BA=5.68,STAT.A,ExtBa=12.20
21/09/2022,08:58:52,TEMP=15.6,BA=5.60,STAT.F,ExtBa=12.30
21/09/2022,09:12:23,TEMP=15.7,BA=5.68,STAT.D,ExtBa=12.30
21/09/2022,09:14:20,TEMP=16.1,BA=5.68,STAT.D,ExtBa=12.30
21/09/2022,09:27:23,TEMP=16.0,BA=5.48,STAT.D,ExtBa=12.30
21/09/2022,09:29:20,TEMP=16.5,BA=5.48,STAT.D,ExtBa=12.20
21/09/2022,09:42:23,TEMP=16.5,BA=5.68,STAT.D,ExtBa=12.30
21/09/2022,09:44:20,TEMP=16.9,BA=5.68,STAT.D,ExtBa=12.20
21/09/2022,09:57:24,TEMP=16.8,BA=5.68,STAT.D,ExtBa=12.30
21/09/2022,09:59:22,TEMP=17.3,BA=5.68,STAT.F,ExtBa=12.20
21/09/2022,10:06:24,TEMP=17.1,BA=5.48,STAT.D,ExtBa=12.30
21/09/2022,10:13:51,TEMP=17.2,BA=5.68,STAT.D,ExtBa=12.30
21/09/2022,10:27:24,TEMP=17.3,BA=5.56,STAT.D,ExtBa=12.30
21/09/2022,10:29:22,TEMP=17.8,BA=5.56,STAT.D,ExtBa=12.20
21/09/2022,10:33:24,TEMP=17.7,BA=5.48,STAT.D,ExtBa=12.30
21/09/2022,10:43:51,TEMP=18.0,BA=5.68,STAT.D,ExtBa=12.30
21/09/2022,10:50:15,TEMP=18.5,BA=5.48,STAT.D,ExtBa=12.30
21/09/2022,10:58:52,TEMP=19.0,BA=5.48,STAT.F,ExtBa=12.30
21/09/2022,11:23:41,TEMP=20.9,BA=5.48,STAT.D,ExtBa=12.20
21/09/2022,11:28:51,TEMP=20.5,BA=5.48,STAT.D,ExtBa=12.20
21/09/2022,11:42:24,TEMP=20.2,BA=5.64,STAT.D,ExtBa=12.20
21/09/2022,11:44:21,TEMP=20.6,BA=5.64,STAT.D,ExtBa=12.20
21/09/2022,11:48:24,TEMP=20.4,BA=5.64,STAT.D,ExtBa=12.20
21/09/2022,11:51:24,TEMP=20.5,BA=5.48,STAT.D,ExtBa=12.20
21/09/2022,11:54:24,TEMP=20.6,BA=5.48,STAT.D,ExtBa=12.20
21/09/2022,11:57:24,TEMP=20.7,BA=5.48,STAT.D,ExtBa=12.20
21/09/2022,11:59:21,TEMP=21.0,BA=5.48,STAT.F,ExtBa=12.20
21/09/2022,12:26:01,TEMP=22.3,BA=5.44,STAT.D,ExtBa=12.10
21/09/2022,12:29:19,TEMP=22.0,BA=5.44,STAT.D,ExtBa=12.20
21/09/2022,12:33:24,TEMP=21.8,BA=5.44,STAT.D,ExtBa=12.20
21/09/2022,12:36:24,TEMP=21.9,BA=5.44,STAT.D,ExtBa=12.20
21/09/2022,12:39:24,TEMP=22.0,BA=5.44,STAT.D,ExtBa=12.20
21/09/2022,12:42:24,TEMP=22.1,BA=5.44,STAT.D,ExtBa=12.20
21/09/2022,12:44:30,TEMP=22.5,BA=5.44,STAT.D,ExtBa=12.20
21/09/2022,12:48:24,TEMP=22.2,BA=5.44,STAT.D,ExtBa=12.20
21/09/2022,12:51:24,TEMP=22.3,BA=5.40,STAT.D,ExtBa=12.20
21/09/2022,12:54:24,TEMP=22.4,BA=5.40,STAT.D,ExtBa=12.20
21/09/2022,12:57:24,TEMP=22.5,BA=5.40,STAT.D,ExtBa=12.20
21/09/2022,12:59:23,TEMP=22.8,BA=5.40,STAT.F,ExtBa=12.20
21/09/2022,13:13:51,TEMP=21.4,BA=5.52,STAT.D,ExtBa=12.20
21/09/2022,13:18:24,TEMP=21.3,BA=5.52,STAT.D,ExtBa=12.20
21/09/2022,13:21:24,TEMP=21.3,BA=5.40,STAT.D,ExtBa=12.20
21/09/2022,13:28:51,TEMP=20.9,BA=5.40,STAT.D,ExtBa=12.20
21/09/2022,13:42:24,TEMP=20.0,BA=5.52,STAT.D,ExtBa=12.20
21/09/2022,13:44:21,TEMP=20.3,BA=5.52,STAT.D,ExtBa=12.20
21/09/2022,13:57:23,TEMP=19.5,BA=5.52,STAT.D,ExtBa=12.20
21/09/2022,13:59:22,TEMP=19.9,BA=5.52,STAT.F,ExtBa=12.20
21/09/2022,14:12:24,TEMP=19.6,BA=5.52,STAT.D,ExtBa=12.20
21/09/2022,14:14:20,TEMP=20.0,BA=5.52,STAT.D,ExtBa=12.20
21/09/2022,14:27:23,TEMP=19.3,BA=5.56,STAT.D,ExtBa=12.20
21/09/2022,14:29:20,TEMP=19.8,BA=5.56,STAT.D,ExtBa=12.20
21/09/2022,14:42:23,TEMP=19.5,BA=5.56,STAT.D,ExtBa=12.20
21/09/2022,14:44:40,TEMP=20.1,BA=5.56,STAT.D,ExtBa=12.20
21/09/2022,14:54:23,TEMP=20.8,BA=5.56,STAT.D,ExtBa=12.20
21/09/2022,14:57:23,TEMP=21.2,BA=5.56,STAT.D,ExtBa=12.20
21/09/2022,14:59:23,TEMP=21.6,BA=5.56,STAT.F,ExtBa=12.20
21/09/2022,15:11:13,TEMP=20.7,BA=5.56,STAT.A,ExtBa=12.20
21/09/2022,15:24:23,TEMP=19.8,BA=5.56,STAT.D,ExtBa=12.20
21/09/2022,15:27:08,TEMP=20.0,BA=5.56,STAT.A,ExtBa=12.20
21/09/2022,15:39:23,TEMP=19.2,BA=5.40,STAT.D,ExtBa=12.20
21/09/2022,15:41:22,TEMP=19.5,BA=5.44,STAT.A,ExtBa=12.20
21/09/2022,15:50:58,TEMP=18.9,BA=5.56,STAT.C,ExtBa=12.20
21/09/2022,16:00:13,TEMP=18.9,BA=5.48,STAT.A,ExtBa=12.20
21/09/2022,16:03:23,TEMP=19.1,BA=5.48,STAT.D,ExtBa=12.20
21/09/2022,16:08:11,TEMP=19.0,BA=5.48,STAT.A,ExtBa=12.20
21/09/2022,16:15:09,TEMP=19.0,BA=5.44,STAT.A,ExtBa=12.20
21/09/2022,16:21:18,TEMP=18.9,BA=5.60,STAT.A,ExtBa=12.20
21/09/2022,16:26:47,TEMP=18.8,BA=5.60,STAT.B,ExtBa=12.20
21/09/2022,16:38:10,TEMP=18.5,BA=5.60,STAT.A,ExtBa=12.20
21/09/2022,16:47:07,TEMP=18.4,BA=5.44,STAT.A,ExtBa=12.20
21/09/2022,16:54:22,TEMP=18.3,BA=5.56,STAT.A,ExtBa=12.20
21/09/2022,17:00:21,TEMP=18.2,BA=5.64,STAT.A,ExtBa=12.20
21/09/2022,17:05:23,TEMP=18.2,BA=5.64,STAT.A,ExtBa=12.20
21/09/2022,17:09:41,TEMP=18.1,BA=5.64,STAT.A,ExtBa=12.20